Charles City, IA

2:33 AM CST on November 23, 2017 (GMT -0600)
Charles City Municipal

Weather History for KCCY - January, 2014

Change the Weather History Date:

Monday, January 6, 2014

  Actual Average Record
Temperature  
Mean Temperature -14 °F -  
Max Temperature -9 °F 22 °F 46 °F (2012)
Min Temperature -20 °F 6 °F -28 °F (1988)
Degree Days  
Heating Degree Days 80    
Moisture  
Dew Point -26 °F    
Average Humidity 57    
Maximum Humidity 64    
Minimum Humidity 52    
Precipitation  
Precipitation 0.00 in - - ()
Sea Level Pressure  
Sea Level Pressure 30.26 in    
Wind  
Wind Speed 20 mph (WNW)    
Max Wind Speed 29 mph    
Max Gust Speed 34 mph    
Visibility 9 miles    
Events      
Averages and records for this station are not official NWS values.
T = Trace of Precipitation, MM = Missing Value Source: NWS Daily Summary

Daily Weather History Graph

Daily Weather History Graph

Search for Another Location

Airport or City:

Trip Planner

Search our weather history database for the weather conditions in past years. The results will help you decide how hot, cold, wet, or windy it might be!

Date:

Astronomy

Jan. 06, 2014 Rise Set
Actual Time 7:41 AM CST 4:51 PM CST
Civil Twilight 7:09 AM CST 5:23 PM CST
Nautical Twilight 6:34 AM CST 5:58 PM CST
Astronomical Twilight 5:59 AM CST 6:33 PM CST
Moon 10:47 AM CST (1/6) 11:36 PM CST (1/6)
Length of Visible Light 10h 13m
Length of Day
9h 09m
Waxing Crescent, 35% of the Moon is Illuminated
Jan 6
Waxing Crescent
Jan 7
First Quarter
Jan 15
Full
Jan 23
Last Quarter
Jan 30
New

Hourly Weather History & Observations

Time (CST) Temp. Windchill Dew Point Humidity Pressure Visibility Wind Dir Wind Speed Gust Speed Precip Events Conditions
12:15 AM -16.6 °F -47.9 °F -29.2 °F 53% 30.28 in 8.0 mi NW 28.8 mph 34.5 mph N/A   Overcast
12:35 AM -16.6 °F -44.1 °F -29.2 °F 53% 30.27 in 9.0 mi NW 20.7 mph 31.1 mph N/A   Overcast
12:55 AM -16.6 °F -42.1 °F -29.2 °F 53% 30.27 in 10.0 mi NW 17.3 mph 25.3 mph N/A   Overcast
1:15 AM -16.6 °F -44.8 °F -29.2 °F 53% 30.27 in 10.0 mi NW 21.9 mph - N/A   Overcast
1:35 AM -16.6 °F -45.9 °F -29.2 °F 53% 30.26 in 9.0 mi NW 24.2 mph 29.9 mph N/A   Overcast
1:55 AM -18.4 °F -45.2 °F -29.2 °F 58% 30.26 in 9.0 mi NW 18.4 mph 25.3 mph N/A   Overcast
2:15 AM -18.4 °F -45.2 °F -31.0 °F 53% 30.27 in 10.0 mi WNW 18.4 mph - N/A   Overcast
2:35 AM -18.4 °F -46.5 °F -29.2 °F 58% 30.27 in 4.0 mi WNW 20.7 mph - N/A   Haze
2:55 AM -18.4 °F -45.2 °F -31.0 °F 53% 30.27 in 10.0 mi WNW 18.4 mph 26.5 mph N/A   Overcast
3:15 AM -18.4 °F -47.1 °F -31.0 °F 53% 30.28 in 10.0 mi WNW 21.9 mph - N/A   Overcast
3:35 AM -18.4 °F -47.7 °F -31.0 °F 53% 30.27 in 10.0 mi WNW 23.0 mph 32.2 mph N/A   Overcast
3:55 AM -18.4 °F -45.2 °F -31.0 °F 53% 30.27 in 10.0 mi WNW 18.4 mph 27.6 mph N/A   Overcast
4:15 AM -20.2 °F -50.1 °F -31.0 °F 58% 30.27 in 10.0 mi NW 23.0 mph 29.9 mph N/A   Overcast
4:35 AM -20.2 °F -48.2 °F -31.0 °F 58% 30.27 in 10.0 mi NW 19.6 mph 27.6 mph N/A   Overcast
4:55 AM -20.2 °F -46.8 °F -31.0 °F 58% 30.27 in 10.0 mi NW 17.3 mph 24.2 mph N/A   Overcast
5:15 AM -20.2 °F -48.2 °F -31.0 °F 58% 30.27 in 10.0 mi WNW 19.6 mph - N/A   Overcast
5:35 AM -20.2 °F -44.4 °F -31.0 °F 58% 30.27 in 10.0 mi WNW 13.8 mph 21.9 mph N/A   Overcast
5:55 AM -20.2 °F -48.9 °F -31.0 °F 58% 30.28 in 10.0 mi WNW 20.7 mph 26.5 mph N/A   Overcast
6:15 AM -20.2 °F -44.4 °F -31.0 °F 58% 30.27 in 10.0 mi WNW 13.8 mph 21.9 mph N/A   Overcast
6:35 AM -20.2 °F -46.8 °F -31.0 °F 58% 30.27 in 10.0 mi WNW 17.3 mph - N/A   Overcast
6:55 AM -20.2 °F -46.0 °F -31.0 °F 58% 30.27 in 10.0 mi WNW 16.1 mph 25.3 mph N/A   Overcast
7:15 AM -20.2 °F -47.5 °F -31.0 °F 58% 30.27 in 10.0 mi WNW 18.4 mph 25.3 mph N/A   Overcast
7:35 AM -20.2 °F -46.0 °F -32.8 °F 52% 30.28 in 10.0 mi WNW 16.1 mph - N/A   Overcast
7:55 AM -20.2 °F -46.0 °F -32.8 °F 52% 30.28 in 10.0 mi WNW 16.1 mph 23.0 mph N/A   Overcast
8:15 AM -20.2 °F -46.8 °F -32.8 °F 52% 30.28 in 10.0 mi WNW 17.3 mph 27.6 mph N/A   Mostly Cloudy
8:35 AM -20.2 °F -46.0 °F -31.0 °F 58% 30.29 in 10.0 mi WNW 16.1 mph - N/A   Overcast
8:55 AM -18.4 °F -43.7 °F -31.0 °F 53% 30.29 in 10.0 mi WNW 16.1 mph - N/A   Overcast
9:15 AM -18.4 °F -45.9 °F -31.0 °F 53% 30.29 in 10.0 mi WNW 19.6 mph - N/A   Overcast
9:35 AM -18.4 °F -44.5 °F -31.0 °F 53% 30.30 in 10.0 mi NW 17.3 mph 26.5 mph N/A   Mostly Cloudy
9:55 AM -16.6 °F -43.5 °F -29.2 °F 53% 30.29 in 10.0 mi WNW 19.6 mph 26.5 mph N/A   Mostly Cloudy
10:15 AM -16.6 °F -44.1 °F -29.2 °F 53% 30.29 in 9.0 mi WNW 20.7 mph 28.8 mph N/A   Overcast
10:35 AM -16.6 °F -43.5 °F -27.4 °F 58% 30.30 in 10.0 mi WNW 19.6 mph - N/A   Overcast
10:55 AM -14.8 °F -40.5 °F -27.4 °F 53% 30.29 in 10.0 mi WNW 18.4 mph 24.2 mph N/A   Mostly Cloudy
11:15 AM -14.8 °F -42.4 °F -25.6 °F 58% 30.28 in 8.0 mi WNW 21.9 mph - N/A   Mostly Cloudy
11:35 AM -14.8 °F -42.4 °F -25.6 °F 58% 30.27 in 7.0 mi WNW 21.9 mph 29.9 mph N/A   Mostly Cloudy
11:55 AM -13.0 °F -39.4 °F -25.6 °F 53% 30.27 in 10.0 mi WNW 20.7 mph 28.8 mph N/A   Mostly Cloudy
12:15 PM -13.0 °F -40.0 °F -23.8 °F 59% 30.25 in 7.0 mi West 21.9 mph 29.9 mph N/A   Scattered Clouds
12:35 PM -13.0 °F -40.0 °F -23.8 °F 59% 30.25 in 4.0 mi WNW 21.9 mph 31.1 mph N/A   Haze
12:55 PM -13.0 °F -39.4 °F -23.8 °F 59% 30.24 in 6.0 mi WNW 20.7 mph 27.6 mph N/A   Haze
1:15 PM -11.2 °F -38.2 °F -22.0 °F 59% 30.24 in 4.0 mi WNW 23.0 mph 28.8 mph N/A   Haze
1:35 PM -11.2 °F -39.2 °F -22.0 °F 59% 30.24 in 5.0 mi WNW 25.3 mph - N/A   Haze
1:55 PM -11.2 °F -37.6 °F -22.0 °F 59% 30.24 in 9.0 mi WNW 21.9 mph 27.6 mph N/A   Mostly Cloudy
2:15 PM -11.2 °F -37.0 °F -22.0 °F 59% 30.24 in 6.0 mi WNW 20.7 mph 28.8 mph N/A   Haze
2:35 PM -11.2 °F -35.8 °F -22.0 °F 59% 30.25 in 4.0 mi West 18.4 mph 28.8 mph N/A   Haze
2:55 PM -11.2 °F -34.4 °F -22.0 °F 59% 30.24 in 3.0 mi WNW 16.1 mph 25.3 mph N/A   Haze
3:15 PM -11.2 °F -36.4 °F -22.0 °F 59% 30.25 in 7.0 mi West 19.6 mph - N/A   Mostly Cloudy
3:35 PM -11.2 °F -35.2 °F -22.0 °F 59% 30.25 in 7.0 mi West 17.3 mph 25.3 mph N/A   Mostly Cloudy
3:55 PM -9.4 °F -32.1 °F -22.0 °F 54% 30.25 in 10.0 mi WNW 16.1 mph 24.2 mph N/A   Mostly Cloudy
4:15 PM -11.2 °F -37.0 °F -22.0 °F 59% 30.26 in 10.0 mi West 20.7 mph 27.6 mph N/A   Mostly Cloudy
4:35 PM -11.2 °F -35.2 °F -22.0 °F 59% 30.25 in 10.0 mi WNW 17.3 mph 23.0 mph N/A   Mostly Cloudy
4:55 PM -11.2 °F -35.2 °F -22.0 °F 59% 30.25 in 10.0 mi West 17.3 mph 23.0 mph N/A   Scattered Clouds
5:15 PM -11.2 °F -34.4 °F -22.0 °F 59% 30.25 in 10.0 mi WNW 16.1 mph - N/A   Mostly Cloudy
5:35 PM -11.2 °F -35.2 °F -20.2 °F 64% 30.25 in 10.0 mi WNW 17.3 mph 24.2 mph N/A   Overcast
5:55 PM -11.2 °F -35.8 °F -22.0 °F 59% 30.24 in 10.0 mi West 18.4 mph - N/A   Scattered Clouds
6:15 PM -11.2 °F -33.7 °F -22.0 °F 59% 30.25 in 10.0 mi WNW 15.0 mph - N/A   Mostly Cloudy
6:35 PM -11.2 °F -32.9 °F -22.0 °F 59% 30.25 in 10.0 mi WNW 13.8 mph - N/A   Mostly Cloudy
6:55 PM -11.2 °F -32.9 °F -22.0 °F 59% 30.25 in 10.0 mi WNW 13.8 mph 19.6 mph N/A   Scattered Clouds
7:15 PM -11.2 °F -32.9 °F -22.0 °F 59% 30.25 in 10.0 mi WNW 13.8 mph - N/A   Mostly Cloudy
7:35 PM -11.2 °F -33.7 °F -22.0 °F 59% 30.24 in 10.0 mi West 15.0 mph - N/A   Mostly Cloudy
7:55 PM -11.2 °F -33.7 °F -22.0 °F 59% 30.24 in 10.0 mi WNW 15.0 mph - N/A   Mostly Cloudy
8:15 PM -11.2 °F -34.4 °F -22.0 °F 59% 30.23 in 10.0 mi West 16.1 mph 24.2 mph N/A   Partly Cloudy
8:35 PM -11.2 °F -35.8 °F -22.0 °F 59% 30.23 in 10.0 mi WNW 18.4 mph 24.2 mph N/A   Clear
8:55 PM -11.2 °F -34.4 °F -22.0 °F 59% 30.23 in 10.0 mi West 16.1 mph 24.2 mph N/A   Partly Cloudy
9:15 PM -11.2 °F -32.1 °F -22.0 °F 59% 30.23 in 10.0 mi West 12.7 mph - N/A   Partly Cloudy
9:35 PM -11.2 °F -33.7 °F -22.0 °F 59% 30.23 in 10.0 mi West 15.0 mph - N/A   Clear
9:55 PM -11.2 °F -32.1 °F -20.2 °F 64% 30.23 in 10.0 mi West 12.7 mph - N/A   Clear
10:15 PM -11.2 °F -32.1 °F -22.0 °F 59% 30.22 in 10.0 mi West 12.7 mph - N/A   Clear
10:35 PM -11.2 °F -31.1 °F -22.0 °F 59% 30.21 in 10.0 mi West 11.5 mph - N/A   Clear
10:55 PM -11.2 °F -31.1 °F -22.0 °F 59% 30.22 in 10.0 mi West 11.5 mph - N/A   Clear
11:15 PM -11.2 °F -32.1 °F -22.0 °F 59% 30.22 in 10.0 mi West 12.7 mph - N/A   Clear
11:35 PM -11.2 °F -32.1 °F -22.0 °F 59% 30.21 in 10.0 mi West 12.7 mph - N/A   Partly Cloudy
11:55 PM -11.2 °F -31.1 °F -22.0 °F 59% 30.21 in 10.0 mi West 11.5 mph - N/A   Clear